Weather History for KFFO - March, 2013

Change the Weather History Date:

Wednesday, March 13, 2013

  Actual Average Record
Temperature  
Mean Temperature 29 °F -  
Max Temperature 33 °F 45 °F 77 °F (2007)
Min Temperature 24 °F 26 °F 14 °F (1998)
Degree Days  
Heating Degree Days 36    
Moisture  
Dew Point 21 °F    
Average Humidity 69    
Maximum Humidity 90    
Minimum Humidity 51    
Precipitation  
Precipitation 0.02 in - - ()
Sea Level Pressure  
Sea Level Pressure 30.14 in    
Wind  
Wind Speed 14 mph (West)    
Max Wind Speed 23 mph    
Max Gust Speed 30 mph    
Visibility 9 miles    
Events Rain , Snow    
Averages and records for this station are not official NWS values.
T = Trace of Precipitation, MM = Missing Value Source: NWS Daily Summary

Daily Weather History Graph

Daily Weather History Graph

Search for Another Location

Airport or City:

Trip Planner

Search our weather history database for the weather conditions in past years. The results will help you decide how hot, cold, wet, or windy it might be!

Date:

Astronomy

Mar. 13, 2013 Rise Set
Actual Time 7:50 AM EDT 7:41 PM EDT
Civil Twilight 7:23 AM EDT 8:08 PM EDT
Nautical Twilight 6:52 AM EDT 8:39 PM EDT
Astronomical Twilight 6:20 AM EDT 9:11 PM EDT
Moon 8:29 AM EDT (3/13) 9:56 PM EDT (3/13)
Length of Visible Light 12h 44m
Length of Day
11h 50m
Waxing Crescent, 4% of the Moon is Illuminated
Mar 13
Waxing Crescent
Mar 19
First Quarter
Mar 27
Full
Apr 3
Last Quarter
Apr 10
New

Hourly Weather History & Observations

Time (EDT) Temp. Windchill Dew Point Humidity Pressure Visibility Wind Dir Wind Speed Gust Speed Precip Events Conditions
12:41 AM 33.8 °F 25.3 °F 30.2 °F 87% 30.04 in 10.0 mi SW 11.5 mph - N/A   Overcast
12:55 AM 33.3 °F 25.1 °F 30.7 °F 90% 30.04 in 10.0 mi SW 10.4 mph - N/A   Overcast
1:06 AM 33.8 °F 25.3 °F 30.2 °F 87% 30.04 in 10.0 mi SW 11.5 mph - N/A   Mostly Cloudy
1:55 AM 31.1 °F 23.1 °F 28.6 °F 90% 30.03 in 10.0 mi SW 9.2 mph - N/A   Scattered Clouds
2:55 AM 31.3 °F 23.3 °F 27.9 °F 87% 30.02 in 10.0 mi SW 9.2 mph - N/A   Mostly Cloudy
3:20 AM 30.2 °F 21.3 °F 26.6 °F 86% 30.01 in 10.0 mi SSW 10.4 mph - N/A   Overcast
3:55 AM 32.4 °F 22.5 °F 27.7 °F 83% 30.00 in 10.0 mi SW 13.8 mph - N/A   Overcast
4:16 AM 32.0 °F 22.5 °F 26.6 °F 80% 30.01 in 10.0 mi WSW 12.7 mph - N/A Snow Light Snow
4:43 AM 32.0 °F 23.0 °F 24.8 °F 75% 30.00 in 10.0 mi West 11.5 mph - N/A Rain Light Freezing Rain
4:55 AM 31.8 °F 22.8 °F 24.8 °F 75% 30.00 in 10.0 mi West 11.5 mph - 0.00 in Snow Light Snow
5:16 AM 32.0 °F 22.1 °F 26.6 °F 80% 30.01 in 5.0 mi SW 13.8 mph - N/A Snow Light Snow
5:40 AM 30.2 °F 20.8 °F 26.6 °F 86% 30.01 in 4.0 mi West 11.5 mph - N/A Snow Light Snow
5:42 AM 30.2 °F 20.8 °F 26.6 °F 86% 30.01 in 4.0 mi WSW 11.5 mph - N/A Snow Light Snow
5:45 AM 30.2 °F 19.8 °F 26.6 °F 86% 30.01 in 4.0 mi West 13.8 mph - N/A Snow Light Snow
5:55 AM 30.4 °F 21.5 °F 25.9 °F 83% 30.01 in 8.0 mi West 10.4 mph - 0.00 in Snow Light Snow
6:55 AM 28.8 °F 17.5 °F 22.5 °F 77% 30.03 in 5.0 mi West 15.0 mph - 0.00 in Snow Light Snow
7:17 AM 28.4 °F 17.0 °F 23.0 °F 80% 30.04 in 10.0 mi WNW 15.0 mph 20.7 mph N/A Snow Light Snow
7:30 AM 28.4 °F 17.0 °F 21.2 °F 74% 30.05 in 10.0 mi WNW 15.0 mph - N/A   Overcast
7:43 AM 28.4 °F 17.0 °F 21.2 °F 74% 30.05 in 10.0 mi West 15.0 mph 20.7 mph N/A   Overcast
7:55 AM 27.1 °F 16.4 °F 19.6 °F 73% 30.06 in 10.0 mi West 12.7 mph 20.7 mph 0.02 in   Overcast
8:55 AM 27.0 °F 14.3 °F 19.6 °F 74% 30.08 in 10.0 mi West 17.3 mph - N/A   Mostly Cloudy
9:28 AM 28.4 °F 17.0 °F 19.4 °F 69% 30.09 in 10.0 mi West 15.0 mph 25.3 mph N/A   Mostly Cloudy
9:33 AM 28.4 °F 17.0 °F 19.4 °F 69% 30.09 in 10.0 mi West 15.0 mph 25.3 mph N/A Snow Light Snow
9:46 AM 28.4 °F 15.8 °F 19.4 °F 69% 30.10 in 10.0 mi West 18.4 mph 25.3 mph N/A   Mostly Cloudy
9:55 AM 27.7 °F 15.2 °F 19.8 °F 72% 30.10 in 10.0 mi West 17.3 mph 25.3 mph 0.00 in   Overcast
10:41 AM 28.4 °F 16.2 °F 19.4 °F 69% 30.12 in 4.0 mi West 17.3 mph 24.2 mph N/A Snow Light Snow
11:30 AM 30.2 °F 19.3 °F 19.4 °F 64% 30.14 in 10.0 mi West 15.0 mph 26.5 mph N/A   Overcast
11:40 AM 30.2 °F 19.8 °F 19.4 °F 64% 30.14 in 10.0 mi WNW 13.8 mph 23.0 mph N/A Snow Light Snow
11:55 AM 29.8 °F 18.4 °F 19.9 °F 67% 30.15 in 10.0 mi West 16.1 mph 23.0 mph 0.00 in Snow Light Snow
12:03 PM 30.2 °F 19.8 °F 21.2 °F 69% 30.15 in 1.5 mi West 13.8 mph - N/A Snow Light Snow
12:06 PM 30.2 °F 18.1 °F 19.4 °F 64% 30.15 in 1.0 mi West 18.4 mph 24.2 mph N/A Snow Light Snow
12:16 PM 28.4 °F 17.0 °F 23.0 °F 80% 30.16 in 7.0 mi West 15.0 mph - N/A Snow Light Snow
12:19 PM 30.2 °F 19.8 °F 23.0 °F 75% 30.15 in 8.0 mi West 13.8 mph - N/A   Mostly Cloudy
12:24 PM 32.0 °F 21.2 °F 21.2 °F 64% 30.15 in 10.0 mi West 16.1 mph 24.2 mph N/A   Mostly Cloudy
12:41 PM 32.0 °F 20.5 °F 19.4 °F 60% 30.16 in 2.5 mi West 18.4 mph 25.3 mph N/A Snow Light Snow
12:52 PM 28.4 °F 16.6 °F 21.2 °F 74% 30.16 in 10.0 mi West 16.1 mph - N/A Snow Light Snow
12:59 PM 29.3 °F 16.2 °F 21.0 °F 71% 30.17 in 10.0 mi West 20.7 mph 23.0 mph 0.00 in   Overcast
1:55 PM 32.0 °F 22.5 °F 17.2 °F 55% 30.17 in 10.0 mi West 12.7 mph 21.9 mph 0.00 in   Overcast
2:02 PM 32.0 °F 19.5 °F 19.4 °F 60% 30.17 in 10.0 mi West 21.9 mph 26.5 mph N/A Snow Light Snow
2:13 PM 32.0 °F 20.5 °F 17.6 °F 55% 30.18 in 10.0 mi West 18.4 mph 26.5 mph N/A   Overcast
2:25 PM 32.0 °F 20.5 °F 19.4 °F 60% 30.18 in 8.0 mi West 18.4 mph 26.5 mph N/A Snow Light Snow
2:36 PM 33.8 °F 22.5 °F 19.4 °F 56% 30.18 in 10.0 mi NW 19.6 mph 24.2 mph N/A   Overcast
2:39 PM 33.8 °F 23.5 °F 19.4 °F 56% 30.18 in 10.0 mi WNW 16.1 mph 24.2 mph N/A Snow Light Snow
2:55 PM 32.2 °F 21.1 °F 20.8 °F 63% 30.18 in 10.0 mi WNW 17.3 mph 25.3 mph 0.00 in   Overcast
2:56 PM 32.0 °F 20.1 °F 21.2 °F 64% 30.18 in 10.0 mi WNW 19.6 mph 27.6 mph N/A Snow Light Snow
3:14 PM 32.0 °F 21.2 °F 17.6 °F 55% 30.19 in 10.0 mi West 16.1 mph 28.8 mph N/A   Mostly Cloudy
3:20 PM 32.0 °F 19.8 °F 19.4 °F 60% 30.19 in 10.0 mi WNW 20.7 mph 28.8 mph N/A Snow Light Snow
3:55 PM 30.6 °F 19.4 °F 19.9 °F 65% 30.21 in 10.0 mi West 16.1 mph - 0.00 in Snow Light Snow
4:11 PM 32.0 °F 20.8 °F 15.8 °F 51% 30.21 in 10.0 mi West 17.3 mph 21.9 mph N/A   Overcast
4:30 PM 30.2 °F 16.8 °F 14.0 °F 51% 30.22 in 10.0 mi West 23.0 mph 29.9 mph N/A Snow Light Snow
4:55 PM 30.9 °F 19.4 °F 16.0 °F 54% 30.22 in 10.0 mi WNW 17.3 mph 23.0 mph 0.00 in Snow Light Snow
5:38 PM 30.2 °F 20.8 °F 15.8 °F 55% 30.24 in 10.0 mi West 11.5 mph - N/A   Overcast
5:55 PM 29.8 °F 17.7 °F 16.2 °F 57% 30.24 in 10.0 mi West 18.4 mph 21.9 mph 0.00 in Snow Light Snow
6:02 PM 30.2 °F 18.5 °F 15.8 °F 55% 30.24 in 10.0 mi West 17.3 mph - N/A   Overcast
6:43 PM 30.2 °F 17.8 °F 15.8 °F 55% 30.25 in 10.0 mi WNW 19.6 mph - N/A Snow Light Snow
6:55 PM 29.8 °F 18.4 °F 16.5 °F 58% 30.25 in 10.0 mi West 16.1 mph 20.7 mph 0.00 in   Overcast
7:55 PM 29.5 °F 18.4 °F 16.7 °F 59% 30.27 in 10.0 mi West 15.0 mph - N/A   Overcast
8:13 PM 28.4 °F 16.6 °F 17.6 °F 64% 30.28 in 10.0 mi WNW 16.1 mph 23.0 mph N/A Snow Light Snow
8:23 PM 28.4 °F 17.0 °F 17.6 °F 64% 30.28 in 10.0 mi WNW 15.0 mph - N/A   Overcast
8:25 PM 28.4 °F 17.0 °F 17.6 °F 64% 30.28 in 10.0 mi WNW 15.0 mph - N/A Snow Light Snow
8:55 PM 28.4 °F 19.1 °F 19.2 °F 69% 30.29 in 10.0 mi West 10.4 mph 18.4 mph 0.00 in Snow Light Snow
9:30 PM 28.4 °F 20.4 °F 19.4 °F 69% 30.29 in 10.0 mi West 8.1 mph 18.4 mph N/A   Scattered Clouds
9:55 PM 27.7 °F 19.6 °F 18.5 °F 68% 30.29 in 10.0 mi West 8.1 mph - 0.00 in   Scattered Clouds
10:55 PM 25.7 °F 19.0 °F 18.1 °F 73% 30.31 in 10.0 mi WSW 5.8 mph - N/A   Partly Cloudy
11:55 PM 24.1 °F 18.2 °F 17.8 °F 77% 30.32 in 10.0 mi West 4.6 mph - N/A   Clear